Airfield :
LOGIN :

Register | Disclaimer

   EN    FR    IT 

 










Legend :    VFR   Marginal VFR   IFR   Intensive IFR   Very Intensive IFR
Visi :
Ceiling :
>= 8 km
>= 3000ft
5 to 8 km
1000 to 3000 ft
1500m to 5 km
500 to 1000 ft
800 to 1500m
200 to 500 ft
< 800m
< 200 ft
Symbols :   Thunderstorms  Fog  Heavy snow  Heavy precipitations  Wind > 20 kt
SIGMETs :     Misc.  Thunderstorms  Icing  Turbulence  Mountain Waves  Volcanic Ashes







- Airport Elevation : 187 ft


LPMR - Monte Real Air Base

CURRENT METAR :
  • 141400Z 27008KT 230V300 9999 BKN020 BKN030 15/14 Q1022

EXPIRED METARs :
  • 141300Z 29010KT 250V320 9999 SCT022 BKN038 16/13 Q1023
  • 141200Z 27007KT 230V310 9999 FEW020 BKN045 16/14 Q1024

TAF TAF LPMR
Valid from the 14 at 12:00 until the 15 at 12:00 UTC


141104Z 1412/1512 27010KT 9999 SCT008 BKN018
TEMPO 1412/1507 1500 -DZRA BR BKN004
BECMG 1500/1503 35010KT
No reported NOTAMs for that airfield.



MET'MAP, your aeronautical weather chart ! - Copyright ORBIFLY December 2007 - Disclaimer

ORBIFLY MET'MAP TEAM :

Programming & Development : Alexandra Zaïnal
Concept & Development : Baudouin d'Aumeries
Co-Development & Prog : Marc-Olivier Méhu
Technical & hardware support : Manuel Goepfert

Contact : metmap@orbifly.com




SOURCES & CREDITS :

   NOAA